User: anonymous   Login
Location: Unspecified
(0.0000°N, 0.0000°E)
Time: 09:06:45
(UTC+00:00)
Language:

Intelsat V F4 - Orbit

View from above orbital plane
View from above orbital plane
View from above satellite
View from above satellite

Ground track
Ground track

The orbit data is extracted from the following two-line orbital elements,

1 13083U 82017A   18016.56298003 -.00000022  00000-0  00000+0 0  9996
2 13083  14.9606 353.1008 0021309 188.1278 338.0235  0.99227509111294
Epoch (UTC): 16 January 2018 13:30:41
Eccentricity: 0.0021309
inclination: 14.9606°
perigee height: 35991 km
apogee height: 36172 km
right ascension of ascending node: 353.1008°
argument of perigee: 188.1278°
revolutions per day: 0.99227509
mean anomaly at epoch: 338.0235°
orbit number at epoch: 11129

The dashed part of the orbit path shows where the satellite is in the earth's shadow,  

DLR